| time (UTC) | temp C | wind direction | speed KPH | gust KPH | rain 1hr cm | rain 24hr cm | rain mn cm | humidity % | barometer mb |
| 20260506221513 | 27 | 132 | 12.9 | 16.1 | 0.00 | 0.00 | 0.00 | 90 | 1008.7 |
| 20260506220113 | 27 | 132 | 9.7 | 14.5 | 0.00 | 0.00 | 0.00 | 90 | 1008.7 |
| 20260506214511 | 27 | 131 | 9.7 | 16.1 | 0.00 | 0.00 | 0.00 | 90 | 1008.9 |
| 20260506213013 | 27 | 131 | 9.7 | 12.9 | 0.00 | 0.00 | 0.00 | 89 | 1008.9 |
| 20260506211509 | 27 | 134 | 11.3 | 14.5 | 0.00 | 0.00 | 0.00 | 89 | 1008.9 |
| 20260506210008 | 27 | 126 | 9.7 | 14.5 | 0.00 | 0.00 | 0.00 | 89 | 1009.0 |
| 20260506204508 | 27 | 128 | 8.0 | 12.9 | 0.00 | 0.00 | 0.00 | 89 | 1009.1 |
| 20260506203006 | 27 | 120 | 4.8 | 11.3 | 0.00 | 0.00 | 0.00 | 89 | 1009.3 |
| 20260506201508 | 27 | 115 | 6.4 | 12.9 | 0.00 | 0.00 | 0.00 | 90 | 1009.6 |
| 20260506200002 | 26 | 139 | 12.9 | 17.7 | 0.00 | 0.00 | 0.00 | 90 | 1009.7 |
| 20260506194502 | 26 | 116 | 4.8 | 11.3 | 0.00 | 0.00 | 0.00 | 90 | 1009.8 |
| 20260506193001 | 27 | 94 | 4.8 | 11.3 | 0.00 | 0.00 | 0.00 | 90 | 1009.9 |
| 20260506191601 | 27 | 80 | 4.8 | 14.5 | 0.00 | 0.00 | 0.00 | 90 | 1010.1 |
| 20260506190100 | 27 | 90 | 9.7 | 14.5 | 0.00 | 0.00 | 0.00 | 89 | 1010.2 |
| 20260506184558 | 27 | 81 | 4.8 | 11.3 | 0.00 | 0.00 | 0.00 | 90 | 1010.2 |
| 20260506183057 | 27 | 84 | 6.4 | 9.7 | 0.00 | 0.00 | 0.00 | 90 | 1010.3 |
| 20260506181554 | 27 | 88 | 6.4 | 11.3 | 0.00 | 0.00 | 0.00 | 92 | 1010.4 |
| 20260506180100 | 26 | 107 | 3.2 | 6.4 | 0.00 | 0.00 | 0.00 | 93 | 1010.4 |
| 20260506174547 | 26 | 134 | 8.0 | 12.9 | 0.00 | 0.00 | 0.00 | 93 | 1010.7 |
| 20260506173053 | 26 | 159 | 11.3 | 16.1 | 0.00 | 0.00 | 0.00 | 93 | 1010.8 |
| 20260506171552 | 26 | 163 | 9.7 | 19.3 | 0.00 | 0.00 | 0.00 | 93 | 1010.8 |
| 20260506170044 | 26 | 165 | 14.5 | 17.7 | 0.00 | 0.00 | 0.00 | 93 | 1010.5 |
| 20260506164543 | 26 | 161 | 9.7 | 14.5 | 0.00 | 0.00 | 0.00 | 92 | 1010.6 |
| 20260506163047 | 26 | 171 | 11.3 | 22.5 | 0.00 | 0.00 | 0.00 | 92 | 1010.5 |
| 20260506161552 | 26 | 163 | 12.9 | 16.1 | 0.00 | 0.00 | 0.00 | 92 | 1010.4 |
| 20260506160039 | 26 | 155 | 12.9 | 19.3 | 0.00 | 0.00 | 0.00 | 91 | 1010.0 |
| 20260506154538 | 26 | 153 | 16.1 | 25.7 | 0.00 | 0.00 | 0.00 | 90 | 1009.9 |
| 20260506153038 | 26 | 175 | 19.3 | 25.7 | 0.00 | 0.00 | 0.00 | 91 | 1009.8 |
| 20260506151534 | 26 | 166 | 16.1 | 30.6 | 0.00 | 0.00 | 0.00 | 91 | 1009.4 |
| 20260506150034 | 26 | 175 | 17.7 | 20.9 | 0.00 | 0.00 | 0.00 | 91 | 1009.5 |
| 20260506144531 | 26 | 128 | 16.1 | 27.4 | 0.00 | 0.00 | 0.00 | 91 | 1009.3 |
| 20260506143030 | 26 | 150 | 14.5 | 24.1 | 0.00 | 0.00 | 0.00 | 91 | 1009.5 |
| 20260506141530 | 26 | 140 | 14.5 | 22.5 | 0.00 | 0.00 | 0.00 | 92 | 1009.5 |
| 20260506140029 | 26 | 169 | 11.3 | 16.1 | 0.00 | 0.00 | 0.00 | 92 | 1009.6 |
| 20260506134602 | 26 | 148 | 12.9 | 19.3 | 0.00 | 0.00 | 0.00 | 92 | 1009.4 |
| 20260506133028 | 25 | 154 | 11.3 | 19.3 | 0.00 | 0.00 | 0.00 | 92 | 1009.4 |
| 20260506131528 | 25 | 148 | 11.3 | 16.1 | 0.00 | 0.00 | 0.00 | 92 | 1009.3 |
| 20260506130026 | 25 | 142 | 12.9 | 17.7 | 0.00 | 0.00 | 0.00 | 92 | 1009.4 |
| 20260506124525 | 25 | 130 | 14.5 | 19.3 | 0.00 | 0.00 | 0.00 | 92 | 1009.2 |
| 20260506123025 | 25 | 135 | 12.9 | 16.1 | 0.00 | 0.00 | 0.00 | 92 | 1009.1 |
| 20260506121524 | 25 | 135 | 9.7 | 12.9 | 0.00 | 0.00 | 0.00 | 92 | 1009.2 |
| 20260506120023 | 25 | 131 | 12.9 | 16.1 | 0.00 | 0.00 | 0.00 | 92 | 1008.9 |
| 20260506114532 | 25 | 134 | 9.7 | 16.1 | 0.00 | 0.00 | 0.00 | 92 | 1008.9 |
| 20260506113024 | 25 | 130 | 11.3 | 14.5 | 0.00 | 0.00 | 0.00 | 91 | 1008.8 |
| 20260506111520 | 25 | 130 | 6.4 | 11.3 | 0.00 | 0.00 | 0.00 | 91 | 1008.9 |
| 20260506110020 | 25 | 130 | 8.0 | 12.9 | 0.00 | 0.00 | 0.00 | 91 | 1008.9 |
| 20260506104520 | 25 | 141 | 8.0 | 11.3 | 0.00 | 0.00 | 0.00 | 91 | 1008.8 |
| 20260506103025 | 25 | 144 | 8.0 | 11.3 | 0.00 | 0.00 | 0.00 | 91 | 1008.9 |
| 20260506101518 | 25 | 150 | 6.4 | 12.9 | 0.00 | 0.00 | 0.00 | 90 | 1008.9 |
| 20260506100029 | 25 | 155 | 6.4 | 12.9 | 0.00 | 0.00 | 0.00 | 90 | 1008.9 |
| 20260506094518 | 25 | 148 | 11.3 | 17.7 | 0.00 | 0.00 | 0.00 | 90 | 1008.7 |
| 20260506093016 | 25 | 154 | 8.0 | 14.5 | 0.00 | 0.00 | 0.00 | 90 | 1008.6 |
| 20260506091515 | 25 | 156 | 9.7 | 19.3 | 0.00 | 0.00 | 0.00 | 90 | 1008.6 |
| 20260506090014 | 25 | 149 | 9.7 | 19.3 | 0.00 | 0.00 | 0.00 | 90 | 1008.4 |
| 20260506084514 | 25 | 159 | 12.9 | 24.1 | 0.00 | 0.00 | 0.00 | 90 | 1008.3 |
| 20260506083012 | 25 | 161 | 11.3 | 17.7 | 0.00 | 0.00 | 0.00 | 90 | 1008.6 |
| 20260506081519 | 25 | 137 | 9.7 | 16.1 | 0.00 | 0.00 | 0.00 | 91 | 1008.6 |
| 20260506073007 | 26 | 158 | 16.1 | 25.7 | 0.00 | 0.00 | 0.00 | 89 | 1008.7 |
| 20260506071509 | 26 | 164 | 20.9 | 30.6 | 0.00 | 0.00 | 0.00 | 90 | 1008.9 |
| 20260506061559 | 26 | 144 | 16.1 | 22.5 | 0.00 | 0.00 | 0.00 | 90 | 1009.5 |
| 20260506044550 | 26 | 146 | 16.1 | 27.4 | 0.00 | 0.00 | 0.00 | 90 | 1009.6 |
| 20260506043049 | 26 | 144 | 19.3 | 25.7 | 0.00 | 0.00 | 0.00 | 90 | 1009.4 |
| 20260506041549 | 26 | 153 | 17.7 | 33.8 | 0.00 | 0.00 | 0.00 | 90 | 1009.5 |
| 20260506040049 | 26 | 144 | 24.1 | 32.2 | 0.00 | 0.00 | 0.00 | 90 | 1009.2 |
| 20260506034551 | 26 | 142 | 25.7 | 33.8 | 0.00 | 0.00 | 0.00 | 90 | 1009.3 |
| 20260506033047 | 26 | 163 | 24.1 | 32.2 | 0.00 | 0.00 | 0.00 | 90 | 1009.0 |
| 20260506031547 | 26 | 141 | 22.5 | 33.8 | 0.00 | 0.00 | 0.00 | 90 | 1008.8 |
| 20260506030046 | 26 | 159 | 24.1 | 33.8 | 0.00 | 0.00 | 0.00 | 90 | 1008.5 |
| 20260506024552 | 26 | 163 | 22.5 | 32.2 | 0.00 | 0.00 | 0.00 | 90 | 1008.2 |
| 20260506023045 | 26 | 132 | 25.7 | 33.8 | 0.00 | 0.00 | 0.00 | 89 | 1008.3 |
| 20260506021544 | 26 | 159 | 25.7 | 32.2 | 0.00 | 0.00 | 0.00 | 89 | 1008.1 |
| 20260506020144 | 26 | 167 | 20.9 | 32.2 | 0.00 | 0.00 | 0.00 | 89 | 1008.1 |
| 20260506014544 | 26 | 175 | 27.4 | 33.8 | 0.00 | 0.00 | 0.00 | 89 | 1007.9 |
| 20260506013043 | 26 | 156 | 27.4 | 33.8 | 0.00 | 0.00 | 0.00 | 88 | 1007.7 |
| 20260506011604 | 26 | 157 | 25.7 | 33.8 | 0.00 | 0.00 | 0.00 | 88 | 1007.5 |
| 20260506010043 | 26 | 161 | 25.7 | 35.4 | 0.00 | 0.00 | 0.00 | 88 | 1007.1 |
| 20260506004557 | 26 | 151 | 25.7 | 33.8 | 0.00 | 0.00 | 0.00 | 89 | 1007.0 |
| 20260506003041 | 26 | 165 | 20.9 | 38.6 | 0.00 | 0.00 | 0.00 | 88 | 1006.9 |
| 20260506001544 | 26 | 145 | 24.1 | 37.0 | 0.00 | 0.00 | 0.00 | 88 | 1007.0 |
| 20260506000109 | 26 | 140 | 24.1 | 32.2 | 0.00 | 0.00 | 0.00 | 87 | 1007.0 |
| 20260505234639 | 26 | 157 | 22.5 | 35.4 | 0.00 | 0.00 | 0.00 | 87 | 1007.0 |
| 20260505233038 | 26 | 147 | 25.7 | 35.4 | 0.00 | 0.00 | 0.00 | 86 | 1007.0 |
| 20260505231537 | 26 | 172 | 22.5 | 30.6 | 0.00 | 0.00 | 0.00 | 86 | 1007.0 |
| 20260505230136 | 27 | 158 | 25.7 | 41.8 | 0.00 | 0.00 | 0.00 | 85 | 1006.9 |
| 20260505224539 | 27 | 155 | 30.6 | 38.6 | 0.00 | 0.00 | 0.00 | 84 | 1006.9 |
| 20260505223038 | 27 | 167 | 30.6 | 40.2 | 0.00 | 0.00 | 0.00 | 84 | 1006.9 |